Regional Weather Roundup
Issued by NWS

Home | Current Version | Previous Version | Text Only | Print | Product List | Glossary Off
Versions: 1 2 3 4 5 6 7 8 9 10 11 12 13 14 15 16 17 18 19 20 21 22 23 24 25 26 27 28 29 30 31 32 33 34 35 36 37 38 39 40 41 42 43 44 45 46 47 48 49 50

000
ASUS43 KLMK 261910
RWRKY
KENTUCKY REGIONAL WEATHER ROUNDUP
NATIONAL WEATHER SERVICE LOUISVILLE KY
300 PM EDT MON JUN 26 2017

NOTE "FAIR" INDICATES FEW OR NO CLOUDS BELOW 12,000 FEET
WITH NO SIGNIFICANT WEATHER AND/OR OBSTRUCTIONS TO VISIBILITY.

KYZ001>023-026-027-061>063-070>075-262000-
WESTERN AND SOUTH CENTRAL KENTUCKY

CITY           SKY/WX    TMP DP  RH WIND       PRES   REMARKS
PADUCAH        SUNNY     78  49  35 N6        30.16F
HENDERSON      SUNNY     77  48  35 W3        30.16F
OWENSBORO      MOSUNNY   77  48  35 NW14      30.16F
HOPKINSVILLE   MOSUNNY   77  50  37 SW5       30.16F
BOWLING GREEN  SUNNY     78  53  41 NW8       30.17F
GLASGOW        MOSUNNY   76  48  37 W6        30.17F
$$

KYZ024-025-028>034-038-045-046-053-262000-
NORTH CENTRAL KENTUCKY

CITY           SKY/WX    TMP DP  RH WIND       PRES   REMARKS
LOUISVILLE/SDF MOSUNNY   79  48  33 NW14      30.15F
LOUISVILLE/LOU PTSUNNY   78  48  34 NW10      30.15F
FORT KNOX      MOSUNNY   75  50  41 W9        30.14F
$$

KYZ035>037-039>044-047>052-055>060-089>105-262000-
NORTHEAST KENTUCKY

CITY           SKY/WX    TMP DP  RH WIND       PRES   REMARKS
LEXINGTON      MOSUNNY   75  46  35 W12       30.17F
COVINGTON      PTSUNNY   73  49  42 NW12      30.14F
FRANKFORT      MOSUNNY   75  46  35 NW9       30.15F
$$

KYZ054-064>069-076>088-106>120-262000-
SOUTHEAST KENTUCKY

CITY           SKY/WX    TMP DP  RH WIND       PRES   REMARKS
JACKSON        MOSUNNY   76  53  44 W8        30.15F
LONDON         SUNNY     78  49  35 W12       30.16F
SOMERSET       MOSUNNY   75  48  38 W9        30.17S
MIDDLESBORO    CLOUDY    77  53  42 NW13      30.15S
MONTICELLO     MOCLDY    76  55  48 MISG      30.18F
$$





USA.gov is the U.S. government's official web portal to all federal, state and local government web resources and services.